Location: *
(40.4000°N, 15.1200°E)
Time: 05:44:34
(UTC+00:00)

SPOT 3 Rocket - Pass Details

Date: 09 April 2020
Orbit: 779 x 794 km, 98.8° (Epoch: 05 June)

Event Time Altitude Azimuth Distance (km) Brightness Sun altitude
Exits shadow 19:22:43 20° 178° (S) 1,760 5.1 -20.3°
Maximum altitude 19:26:21 68° 258° (WSW) 850 3.8 -20.9°
Drops below altitude 10° 19:31:32 10° 341° (NNW) 2,361 6.7 -21.8°
Sets 19:33:53 0° 344° (NNW) 3,292 7.5 -22.1°
